Wind_Speed
15 15 16 17 18 18 18 19 19 20 21 21 21 22 24 25 28 24 10 22 14 17 21 6 7 11 12 4 6 5 2 5 6 7 9 5 4 18 10 6 2 4 6 8 15
15 15 17 17 18 19 20 19 19 20 20 21 22 23 25 27 29 15 31 29 26 20 12 14 9 9 4 6 4 6 8 9 10 11 6 14 8 20 13 15 7 2 2 8 17
17 17 17 18 19 20 21 22 21 19 19 19 21 23 24 24 7 8 9 10 9 24 27 13 14 4 8 5 6 6 14 14 15 11 9 13 13 14 17 12 6 5 5 7 5
18 18 19 19 20 20 21 21 22 22 22 20 20 21 22 8 7 2 5 19 18 11 21 12 6 5 6 12 11 11 12 14 16 16 14 17 17 13 16 17 11 10 9 7 9
19 20 21 22 23 24 23 24 23 23 23 22 20 17 10 3 10 26 28 32 21 4 24 10 11 6 7 5 7 22 12 10 13 19 19 17 21 22 22 18 17 12 9 10 10
23 24 25 26 27 27 27 27 27 27 26 20 15 11 6 11 18 21 21 18 17 11 15 12 6 7 4 5 8 4 6 13 13 17 16 17 21 21 24 20 19 14 11 10 10
25 24 27 29 29 29 29 30 31 29 23 17 13 9 9 20 17 24 23 26 26 18 6 13 17 5 6 4 9 12 10 16 19 9 12 12 24 27 20 18 19 19 13 11 10
25 26 27 31 32 31 30 31 29 28 22 13 7 5 8 32 29 33 25 24 19 15 15 17 10 6 6 5 6 2 6 18 20 18 9 6 33 20 12 12 13 13 16 18 21
26 28 30 31 30 29 26 27 25 23 12 2 5 6 10 13 8 14 17 15 11 13 10 11 6 6 3 3 1 6 16 19 21 8 5 13 42 13 12 15 13 12 15 17 20
28 30 31 31 28 26 22 24 19 10 12 2 2 3 7 5 6 29 19 12 8 3 2 1 2 5 4 6 19 11 22 16 14 6 17 21 33 19 21 23 22 23 24 22 22
30 32 33 28 27 21 20 21 11 5 10 3 17 16 25 45 47 29 21 9 7 1 6 3 4 19 20 16 9 8 11 14 2 11 16 20 21 19 16 13 12 17 18 20 20
30 31 28 24 25 13 11 4 11 8 11 15 17 21 35 34 22 28 26 4 0 5 4 4 19 9 9 6 11 13 14 19 6 9 10 12 23 25 23 22 19 23 21 15 9
31 31 27 23 15 11 9 15 23 20 3 10 19 13 12 5 15 24 5 5 6 8 7 10 6 9 15 10 16 15 18 16 11 12 22 9 17 13 18 13 12 10 12 11 12
31 29 24 24 4 20 11 22 21 14 4 7 10 5 9 3 3 17 27 12 5 10 9 10 11 14 11 18 16 19 11 12 17 12 14 7 19 17 19 23 16 15 11 10 17
31 26 22 9 11 9 17 23 21 2 3 9 10 3 12 11 15 2 5 7 19 19 7 13 8 1 11 17 13 19 13 11 16 10 9 16 4 33 11 19 18 14 11 18 16
34 24 23 4 12 14 21 21 5 4 3 7 5 12 11 13 16 12 7 6 4 5 16 18 8 11 12 13 9 7 8 13 16 3 10 15 9 29 17 21 11 8 12 10 12
34 25 13 12 6 16 20 4 4 5 4 8 22 18 8 11 12 11 5 2 4 7 5 7 13 14 15 12 11 5 1 2 3 5 16 14 11 23 6 6 11 16 16 16 12
30 18 9 14 12 14 12 5 6 3 6 15 17 19 4 8 6 10 11 5 10 2 5 2 4 7 8 9 8 6 9 5 9 4 5 9 10 9 16 26 26 20 14 11 8
27 13 7 6 4 6 5 5 5 8 6 12 14 10 5 6 6 5 5 3 4 3 5 3 5 2 8 4 2 5 8 7 5 15 2 6 15 17 21 26 22 17 9 7 6
17 8 6 3 3 5 4 2 4 12 16 13 1 9 9 6 5 7 3 4 7 8 3 3 4 6 5 3 3 6 3 1 2 6 10 6 7 8 9 16 7 10 9 8 7
5 3 4 2 2 4 2 5 10 13 11 7 5 5 11 7 2 3 4 4 4 6 6 2 1 3 4 4 4 2 3 3 4 3 7 4 9 7 19 11 14 12 12 16 14
7 2 3 4 3 1 1 5 14 14 12 3 5 5 7 7 3 4 4 4 2 2 5 1 1 4 8 14 16 10 6 5 3 8 5 9 20 14 14 16 12 11 16 15 17
5 3 4 4 3 4 6 11 10 13 11 3 4 5 5 4 5 5 2 6 7 3 3 4 1 3 10 6 2 5 5 2 4 7 19 6 10 7 9 12 5 10 15 15 16
3 4 4 4 1 2 7 6 9 11 13 8 10 3 6 7 3 6 9 5 4 6 6 4 4 6 7 5 3 5 8 8 5 3 10 19 14 28 19 19 7 10 17 18 18
2 2 1 4 5 7 7 7 16 8 4 7 4 10 13 5 6 4 5 8 9 12 4 7 5 8 14 16 16 16 16 13 12 9 4 7 12 16 18 16 12 14 15 18 17
2 3 4 5 5 4 5 3 14 12 7 7 9 18 12 8 9 11 11 6 8 5 6 4 4 5 13 16 17 20 19 13 16 12 9 15 24 10 13 13 10 17 19 19 19
5 4 2 4 5 5 2 12 13 14 9 8 13 14 13 13 12 16 16 19 12 7 6 6 4 2 7 13 14 8 15 17 14 8 4 5 7 16 15 2 6 7 10 21 20
Wind_Direction
354 350 346 344 341 338 334 334 331 330 329 328 325 325 326 326 318 311 243 248 249 255 238 260 242 226 225 233 214 147 109 229 228 232 248 71 26 293 329 315 190 129 142 206 199
353 350 345 340 337 333 333 331 329 329 328 325 324 325 327 330 321 259 275 269 253 239 217 224 232 208 196 215 224 167 199 227 218 230 282 311 302 293 313 321 304 38 4 173 177
351 345 341 335 333 330 331 331 328 323 318 320 322 323 325 337 306 248 53 0 302 234 232 223 235 242 209 229 218 209 218 214 252 248 270 284 285 273 300 299 270 305 283 294 291
351 345 339 335 332 328 327 327 325 323 321 317 316 323 325 328 264 167 22 346 329 262 226 209 215 204 211 216 232 263 235 222 245 259 260 256 272 272 266 264 251 256 244 254 270
347 342 338 335 333 331 327 326 323 319 316 313 313 321 337 293 259 257 281 304 320 254 204 206 201 170 197 216 226 250 255 239 237 250 252 261 262 263 272 276 271 263 258 243 237
347 343 341 337 332 329 326 323 319 316 312 302 298 302 280 276 265 281 294 297 288 331 208 206 208 193 269 223 224 277 252 259 248 248 255 255 263 267 272 275 281 280 276 269 248
346 347 344 339 333 328 324 320 317 314 305 294 285 275 248 250 270 287 277 279 276 284 284 238 218 190 185 289 251 262 280 280 258 249 262 259 263 253 256 273 274 275 270 271 256
339 338 340 336 330 328 323 322 322 322 314 288 254 246 255 272 282 280 277 279 269 269 254 271 272 229 210 278 310 258 233 247 250 244 249 241 262 254 261 252 254 269 280 277 275
336 338 340 332 324 328 327 330 332 328 323 246 163 182 263 304 242 282 258 241 251 269 255 260 227 190 231 175 312 211 242 238 250 222 218 208 261 253 246 257 267 267 268 270 274
340 341 338 332 333 338 334 345 354 63 48 109 221 294 257 277 280 325 294 241 224 250 319 231 216 208 181 173 215 215 222 237 254 213 225 239 260 261 265 265 268 270 268 266 266
343 342 341 344 343 343 344 358 17 344 311 256 274 249 270 274 290 294 306 348 245 290 190 220 194 223 219 228 272 289 269 255 231 202 223 239 262 257 247 250 257 259 262 258 261
344 345 348 346 341 343 347 8 333 314 310 320 277 268 257 264 273 282 292 288 57 236 186 206 231 243 259 259 226 243 266 267 290 286 245 244 252 263 262 263 253 258 263 250 250
344 345 352 342 337 348 341 349 345 350 300 324 315 294 282 202 240 260 263 273 250 261 249 220 220 217 242 247 249 243 234 259 264 303 289 300 278 275 272 260 259 270 247 260 252
344 342 347 343 344 331 318 332 341 341 49 290 304 283 312 246 242 226 244 233 230 222 246 256 236 248 260 226 236 248 250 256 246 257 261 205 280 266 267 267 264 245 250 248 258
343 339 337 348 300 306 318 335 333 343 84 304 293 301 340 9 349 342 269 258 214 234 194 237 288 225 230 241 227 250 251 241 235 239 244 244 278 266 230 254 252 258 247 256 269
340 337 326 330 302 311 328 328 6 50 319 310 295 346 12 351 346 7 347 54 314 256 234 235 204 248 255 268 260 286 253 235 256 212 252 228 203 272 242 247 251 232 243 253 258
337 334 306 290 270 322 323 10 42 88 286 326 331 339 9 347 352 346 311 62 64 335 356 244 229 233 244 254 264 223 35 251 251 199 234 177 212 238 261 239 241 248 248 250 251
336 337 316 281 292 305 337 45 58 292 325 322 339 319 337 7 337 331 355 358 159 131 339 21 320 202 214 208 230 184 171 197 209 208 233 260 236 240 228 252 259 249 243 253 256
336 336 297 293 259 279 59 41 202 329 265 336 330 291 332 20 336 330 344 287 146 123 173 251 233 337 313 287 144 320 217 200 300 281 244 238 265 280 280 279 267 257 256 203 162
334 333 290 218 206 47 68 267 274 316 323 356 193 294 354 338 346 338 340 348 359 32 3 282 280 247 288 1 234 181 247 165 215 199 239 257 259 236 225 249 264 252 215 172 154
9 20 230 217 258 52 131 235 294 318 357 313 310 331 343 317 255 295 328 360 17 336 325 307 194 306 347 216 218 335 249 206 176 198 235 272 253 205 255 260 275 272 188 165 158
349 22 311 241 29 30 272 280 319 318 334 310 271 333 343 315 305 320 329 273 345 289 300 74 214 267 254 265 264 252 264 165 211 243 250 244 255 272 289 296 302 261 163 157 151
337 276 25 350 30 318 305 317 302 314 317 292 300 314 346 331 326 270 238 289 291 293 302 354 340 333 322 298 315 237 164 29 289 229 241 250 265 231 267 289 293 173 150 148 142
343 347 331 33 133 27 327 314 322 316 300 340 299 327 348 319 286 273 288 273 261 226 256 250 227 206 230 240 21 279 301 305 280 278 247 241 287 276 274 283 283 190 153 152 152
51 285 222 306 320 314 303 285 319 328 296 313 313 331 324 301 299 244 299 296 293 283 203 172 237 225 250 262 269 267 256 254 249 248 242 307 281 289 300 288 239 183 154 148 148
31 5 345 280 273 308 327 324 319 321 312 303 317 316 321 298 281 294 277 272 249 283 178 191 248 252 283 271 256 250 247 244 244 247 245 250 270 285 301 302 177 174 161 155 155
357 303 246 282 296 326 274 321 309 327 304 272 303 310 308 289 288 276 259 262 243 219 203 187 218 252 260 290 246 227 235 241 234 187 191 255 274 293 303 349 0 47 201 160 160
Height
837 834 831 827 824 821 817 813 810 806 801 799 798 795 792 788 784 781 777 765 764 765 770 771 770 769 774 773 770 770 802 806 793 783 767 753 759 731 735 735 727 723 730 727 728
836 833 829 826 822 818 815 812 809 805 801 798 795 791 788 785 780 773 759 759 760 764 765 768 768 767 773 770 769 776 789 786 766 763 761 750 755 746 747 741 735 726 724 724 727
835 832 828 824 821 816 812 809 806 805 803 799 795 793 790 788 782 757 754 755 754 757 761 763 766 767 769 765 765 764 769 763 755 756 753 750 748 742 746 748 737 736 726 722 720
834 830 827 823 819 815 811 807 804 800 797 796 794 791 790 790 784 752 752 753 751 750 757 759 763 769 771 767 756 770 751 752 752 748 749 750 739 742 743 739 730 726 722 719 716
833 829 825 821 816 812 809 806 802 799 796 793 791 791 791 789 773 751 748 750 749 748 750 755 760 763 767 763 760 758 752 749 748 746 744 742 742 738 733 725 720 720 718 718 715
830 826 821 817 813 808 804 801 798 796 793 792 792 793 793 791 756 751 750 751 751 751 749 752 752 753 759 760 762 750 753 748 744 743 740 745 735 731 723 715 716 715 713 710 710
828 824 819 815 809 804 799 795 790 788 788 787 787 789 787 776 753 750 749 749 748 752 752 747 749 751 752 758 749 749 759 747 739 740 741 738 735 727 716 715 716 713 709 706 704
829 823 819 813 806 800 794 789 783 780 780 781 783 785 776 751 751 745 742 743 744 747 748 745 748 750 753 748 748 752 755 761 732 737 736 745 722 715 711 714 716 711 705 701 698
826 820 816 810 805 799 792 785 779 776 774 776 781 782 770 749 746 736 739 739 739 740 742 743 745 749 749 759 767 759 757 749 737 731 736 740 702 717 711 711 712 709 703 698 691
823 818 812 806 801 797 790 785 778 775 775 777 779 783 758 745 739 740 736 735 736 736 739 741 746 752 757 762 756 755 748 737 744 735 733 737 711 713 709 708 706 700 695 692 687
821 814 808 802 799 795 789 783 782 782 775 780 774 769 753 741 741 735 738 739 737 739 749 744 756 744 737 743 744 741 743 739 731 726 731 728 718 710 703 702 703 694 690 684 680
819 813 804 800 796 794 791 789 787 787 780 768 762 755 744 741 744 732 738 743 741 747 741 748 742 736 737 739 743 746 749 743 738 729 728 728 720 702 696 693 693 686 683 681 678
816 810 804 798 795 792 788 787 784 782 786 768 757 745 736 733 737 731 735 736 740 744 743 745 735 731 738 741 742 738 745 745 747 735 721 731 722 713 691 687 683 680 675 672 669
814 809 803 798 795 792 788 785 781 780 799 773 754 742 735 732 733 724 726 733 736 740 739 738 730 732 734 738 736 741 734 734 740 746 748 725 735 715 688 681 678 675 673 670 660
812 808 803 800 796 793 787 782 779 780 785 761 753 738 735 738 729 719 720 720 728 731 735 732 730 733 733 731 727 731 727 729 731 735 743 734 753 670 689 683 677 667 666 653 648
808 805 801 799 795 788 784 780 778 796 800 771 753 746 742 735 729 725 719 720 723 725 721 724 722 726 726 722 722 721 725 727 728 740 750 727 739 664 683 674 670 662 656 650 645
804 800 798 797 793 787 783 780 801 810 775 770 762 753 745 742 735 733 729 733 740 742 736 721 722 717 716 726 721 726 739 756 758 754 731 712 725 673 664 655 658 655 650 643 641
799 796 795 792 790 787 784 794 805 789 781 772 768 755 750 744 741 738 732 734 727 738 741 735 736 716 709 718 724 728 736 749 751 749 729 709 708 681 652 644 641 642 640 638 637
796 792 791 789 789 789 794 810 815 783 782 773 777 758 753 747 746 745 739 738 728 742 747 734 726 710 710 711 715 721 728 721 735 717 733 708 679 658 645 638 638 638 637 639 641
795 792 789 787 789 788 805 799 787 779 769 769 786 761 761 755 752 746 743 735 740 737 737 730 736 715 710 707 708 716 714 729 736 740 734 706 692 677 653 641 640 639 637 641 642
796 797 787 788 788 797 817 801 781 772 769 769 767 762 758 756 752 749 742 741 743 740 737 735 737 728 717 715 715 719 720 719 722 723 717 719 684 655 641 641 638 632 630 632 637
803 802 787 789 804 807 808 786 777 771 766 766 762 757 759 755 754 751 751 747 741 742 739 733 743 744 727 713 707 710 717 721 729 721 710 697 663 636 633 628 627 620 620 627 630
813 806 788 789 803 814 799 785 779 779 768 763 762 758 757 757 761 749 749 738 736 739 735 735 747 749 736 714 707 713 709 713 716 710 699 708 662 632 636 629 623 623 619 626 631
816 814 801 798 805 805 803 792 784 774 768 762 761 756 760 758 751 752 743 737 734 736 732 738 743 742 745 719 716 722 710 714 717 723 693 680 677 638 635 630 625 625 617 625 631
818 819 811 818 807 805 801 793 787 782 774 766 760 759 758 759 754 749 741 737 730 727 730 739 742 733 727 722 719 712 709 706 711 706 712 687 687 659 650 631 624 623 623 629 634
825 825 818 814 805 802 796 791 788 782 778 769 769 758 755 756 753 751 744 740 740 730 734 739 736 725 719 711 708 706 696 695 699 693 695 691 676 653 644 628 615 621 622 626 631
825 822 821 808 807 802 798 794 787 777 770 765 762 758 752 744 738 734 730 725 728 730 733 731 730 724 712 703 697 702 690 689 683 677 678 688 665 648 644 635 636 636 626 620 627